Regional Weather Roundup
Issued by NWS

Home | Current Version | Previous Version | Text Only | Print | Product List | Glossary On
Versions: 1 2 3 4 5 6 7 8 9 10 11 12 13 14 15 16 17 18 19 20 21 22 23 24 25 26 27 28 29 30 31 32 33 34 35 36 37 38 39 40 41 42 43 44 45 46 47 48
000
ASUS45 KSLC 250210
RWRUT

UTAH REGIONAL WEATHER ROUNDUP
NATIONAL WEATHER SERVICE SALT LAKE CITY UT
700 PM MST WED DEC 24 2014

UTZ001>011-023>025-250300-

NORTHERN UTAH

CITY           SKY/WX    TMP DP  RH WIND       PRES   REMARKS
BRIGHAM CITY   CLOUDY    35  26  69 W5        29.56F WCI  31
HILL AFB       CLOUDY    39  21  48 SE13      29.55F WCI  32
LOGAN          CLOUDY    34  24  67 CALM      29.55F
OGDEN          CLOUDY    37  23  56 SE8       29.54F WCI  31
PROVO AIRPORT  NOT AVBL
SALT LAKE CITY CLOUDY    46  23  40 S23G29    29.56F
VERNAL         MOCLDY    28  14  55 CALM      29.77F
WENDOVER       CLOUDY    30  19  64 W5        29.54F WCI  25
HEBER CITY     CLOUDY    34  27  75 W3        29.64F
WEST JORDAN    CLOUDY    39  27  60 S23G29    29.59F WCI  29

$$

UTZ012>022-026-027-250300-

SOUTHERN/CENTRAL UTAH

CITY           SKY/WX    TMP DP  RH WIND       PRES   REMARKS
BLANDING       CLOUDY    30  19  62 NE3       29.96F
BRYCE CANYON   CLOUDY    28  15  58 S8        29.81F WCI  20
CEDAR CITY     CLOUDY    38  15  39 W20G26    29.74F WCI  28
DELTA          CLOUDY    41  25  52 S25G32    29.62F
MILFORD        CLOUDY    40  17  39 S28G37    29.68F WCI  29
MOAB/CYNLANDS  CLEAR     31  20  63 E8        29.83F WCI  23
PRICE          MOCLDY    27  11  51 E5        29.81F WCI  22
ST GEORGE      CLOUDY    41  18  38 CALM      29.84F

$$

REGIONAL REPORTS     COLORADO/ARIZONA

CITY           SKY/WX    TMP DP  RH WIND       PRES   REMARKS
CRAIG, CO      MOCLDY    25  12  58 E8        29.74F WCI  16
GRAND JUNCTION CLOUDY    28  24  85 CALM      29.86F
RIFLE          CLOUDY    26  17  68 SE3       29.85F
MONTROSE       CLOUDY    29  17  61 S3        29.86F
CORTEZ         CLEAR     28  19  69 SE3       29.91F
PAGE, AZ       CLOUDY    43  11  27 S5        29.84F
GRAND CANYON   CLOUDY    38  15  39 S12       29.90F WCI  30
KINGMAN        CLOUDY    47  17  30 VRB5      29.90R
FLAGSTAFF      CLOUDY    36  12  37 SW13      29.94F WCI  27

$$

REGIONAL REPORTS    NEVADA/IDAHO/WYOMING

CITY           SKY/WX    TMP DP  RH WIND       PRES   REMARKS
LAS VEGAS, NV  MOCLDY    48  20  32 S6        29.76F
ELY            PTCLDY    37  23  56 S12G23    29.60F WCI  29
ELKO           LGT RAIN  42  36  79 SW29G40   29.47F
POCATELLO, ID  CLOUDY    40  28  62 S12       29.47F WCI  33
EVANSTON, WY   CLOUDY    36  24  62 SW16      29.59F WCI  26
ROCK SPRINGS   CLOUDY    28  18  66 SE12      29.59F WCI  18
KEMMERER       CLOUDY    28  23  80 CALM      29.58F

$$


USA.gov is the U.S. government's official web portal to all federal, state and local government web resources and services.